PAKSAT-1R

Last updated on Sept. 20, 2020, 5:45 a.m. UTC

1 37779U 11042A   20263.78591167  .00000139  00000-0  00000+0 0  9990
2 37779   0.0511 313.7369 0003238 161.6539 204.6490  1.00269856 33256
UTC
Height (km)
Latitude
Longitude
Inclination
Orbital Period
UTC large
Height (km)
Speed (km/s)
/
Latitude / Longitude
Inclination (degrees)
Orbital Period (minutes)
Azimuth
Elevation
Range (km)
Doppler Factor
iOS Compass Heading
iOS Angle

Next 30 passes for location: Hong Kong

Rise time Rise Azimuth (degrees) Set time Set Azimuth (degrees) Duration Max altitude (degrees)

No matching passes for this satellites